DW2150 Weather Reports


Display with metric or nautical units.
time (UTC)temp
F
wind
direction
speed
MPH
gust
MPH
rain 1hr
in
rain 24hr
in
rain mn
in
humidity
%
barometer
mb
20200226203926 56 303 5.0 17.0 0.00 0.00 0.00 50 1025.7
20200226203425 57 279 4.0 17.0 0.00 0.00 0.00 52 1025.7
20200226202924 57 338 5.0 14.0 0.00 0.00 0.00 50 1025.7
20200226202422 57 268 7.0 14.0 0.00 0.00 0.00 50 1025.7
20200226201921 57 292 4.0 15.0 0.00 0.00 0.00 51 1025.7
20200226201420 57 303 4.0 15.0 0.00 0.00 0.00 49 1025.7
20200226200919 57 301 5.0 15.0 0.00 0.00 0.00 50 1026.1
20200226200418 57 307 5.0 16.0 0.00 0.00 0.00 48 1026.1
20200226195917 57 288 5.0 16.0 0.00 0.00 0.00 51 1026.1
20200226195415 57 317 5.0 16.0 0.00 0.00 0.00 50 1026.1
20200226194914 56 272 4.0 16.0 0.00 0.00 0.00 52 1026.1
20200226194412 56 295 4.0 13.0 0.00 0.00 0.00 51 1026.4
20200226193911 56 282 5.0 15.0 0.00 0.00 0.00 52 1026.4
20200226193410 56 342 4.0 15.0 0.00 0.00 0.00 51 1026.1
20200226192909 56 285 5.0 15.0 0.00 0.00 0.00 51 1026.4
20200226192408 56 315 5.0 14.0 0.00 0.00 0.00 50 1026.4
20200226191907 56 317 5.0 14.0 0.00 0.00 0.00 50 1026.4
20200226191406 56 303 6.0 14.0 0.00 0.00 0.00 51 1026.4
20200226190905 56 309 3.0 14.0 0.00 0.00 0.00 50 1026.4
20200226190404 56 335 4.0 14.0 0.00 0.00 0.00 53 1026.4
20200226185902 56 294 4.0 16.0 0.00 0.00 0.00 52 1026.4
20200226185401 56 17 5.0 16.0 0.00 0.00 0.00 52 1026.8
20200226184900 56 273 5.0 16.0 0.00 0.00 0.00 50 1026.8
20200226184358 56 256 5.0 16.0 0.00 0.00 0.00 52 1026.8
20200226183857 56 318 7.0 16.0 0.00 0.00 0.00 51 1026.8
20200226183356 56 272 4.0 16.0 0.00 0.00 0.00 52 1026.8
20200226182855 56 303 4.0 16.0 0.00 0.00 0.00 53 1026.8
20200226182354 56 321 3.0 16.0 0.00 0.00 0.00 52 1026.8
20200226181853 55 271 6.0 16.0 0.00 0.00 0.00 53 1026.8
20200226181352 55 285 6.0 16.0 0.00 0.00 0.00 54 1027.1
20200226180851 55 321 4.0 16.0 0.00 0.00 0.00 53 1027.1
20200226180350 55 305 4.0 18.0 0.00 0.00 0.00 53 1027.1
20200226175848 55 286 4.0 18.0 0.00 0.00 0.00 53 1027.4
20200226175347 55 314 6.0 18.0 0.00 0.00 0.00 52 1027.4
20200226174846 55 309 5.0 18.0 0.00 0.00 0.00 52 1027.4
20200226174345 55 265 6.0 16.0 0.00 0.00 0.00 54 1027.4
20200226173844 55 283 4.0 12.0 0.00 0.00 0.00 54 1027.4
20200226173342 55 316 5.0 12.0 0.00 0.00 0.00 55 1027.4
20200226172842 54 285 5.0 13.0 0.00 0.00 0.00 54 1027.8
20200226172340 54 318 3.0 19.0 0.00 0.00 0.00 57 1027.8
20200226171839 54 298 4.0 19.0 0.00 0.00 0.00 54 1027.8
20200226171338 54 315 4.0 19.0 0.00 0.00 0.00 55 1027.8
20200226170838 54 272 7.0 19.0 0.00 0.00 0.00 53 1027.8
20200226170336 54 332 5.0 17.0 0.00 0.00 0.00 54 1027.8
20200226165835 54 333 5.0 17.0 0.00 0.00 0.00 55 1027.8
20200226165333 54 314 6.0 17.0 0.00 0.00 0.00 55 1027.8
20200226164832 54 272 6.0 17.0 0.00 0.00 0.00 54 1027.8
20200226164331 54 315 5.0 17.0 0.00 0.00 0.00 55 1027.8
20200226163830 54 307 5.0 17.0 0.00 0.00 0.00 56 1027.8
20200226163329 53 326 5.0 15.0 0.00 0.00 0.00 56 1027.8
20200226162828 53 333 6.0 15.0 0.00 0.00 0.00 56 1027.8
20200226162326 52 308 6.0 16.0 0.00 0.00 0.00 56 1027.8
20200226161825 52 292 6.0 16.0 0.00 0.00 0.00 56 1027.8
20200226161324 53 261 5.0 17.0 0.00 0.00 0.00 56 1027.8
20200226160823 53 295 7.0 17.0 0.00 0.00 0.00 56 1027.8
20200226160321 52 323 4.0 17.0 0.00 0.00 0.00 58 1027.8
20200226155820 51 296 5.0 17.0 0.00 0.00 0.00 57 1027.8
20200226155318 51 318 5.0 18.0 0.00 0.00 0.00 57 1027.8
20200226154818 51 302 5.0 18.0 0.00 0.00 0.00 56 1027.4
20200226154316 51 277 7.0 19.0 0.00 0.00 0.00 56 1027.4
20200226153814 51 301 7.0 19.0 0.00 0.00 0.00 59 1027.4
20200226153313 51 274 5.0 19.0 0.00 0.00 0.00 59 1027.4
20200226152812 50 266 6.0 19.0 0.00 0.00 0.00 59 1027.4
20200226152311 50 294 5.0 18.0 0.00 0.00 0.00 58 1027.4
20200226151810 50 300 5.0 18.0 0.00 0.00 0.00 60 1027.4
20200226151309 50 355 3.0 18.0 0.00 0.00 0.00 60 1027.4
20200226150808 49 295 5.0 18.0 0.00 0.00 0.00 61 1027.4
20200226150307 49 322 5.0 18.0 0.00 0.00 0.00 61 1027.4
20200226145805 49 319 6.0 18.0 0.00 0.00 0.00 60 1027.1
20200226145305 49 330 5.0 18.0 0.00 0.00 0.00 61 1027.1
20200226144804 48 311 5.0 20.0 0.00 0.00 0.00 62 1027.1
20200226144302 48 316 5.0 20.0 0.00 0.00 0.00 63 1027.1
20200226143801 48 307 4.0 20.0 0.00 0.00 0.00 62 1026.8
20200226143300 47 317 6.0 17.0 0.00 0.00 0.00 62 1026.8
20200226142759 47 271 3.0 17.0 0.00 0.00 0.00 63 1026.8
20200226142258 47 282 5.0 17.0 0.00 0.00 0.00 63 1026.4
20200226141757 47 331 4.0 17.0 0.00 0.00 0.00 62 1026.4
20200226141255 47 308 4.0 15.0 0.00 0.00 0.00 62 1026.4
20200226140754 47 332 4.0 15.0 0.00 0.00 0.00 61 1026.4
20200226140253 47 279 5.0 15.0 0.00 0.00 0.00 61 1026.1
20200226135752 47 302 6.0 15.0 0.00 0.00 0.00 61 1026.1
20200226135251 48 317 4.0 14.0 0.00 0.00 0.00 61 1026.1
20200226134750 48 297 5.0 17.0 0.00 0.00 0.00 61 1026.1
20200226134249 48 273 5.0 17.0 0.00 0.00 0.00 60 1025.7
20200226133748 48 296 6.0 17.0 0.00 0.00 0.00 59 1026.1
20200226133247 48 318 5.0 17.0 0.00 0.00 0.00 59 1026.1
20200226132746 48 280 5.0 15.0 0.00 0.00 0.00 57 1025.7
20200226132244 48 299 6.0 15.0 0.00 0.00 0.00 57 1025.7
20200226131743 48 265 6.0 15.0 0.00 0.00 0.00 57 1025.4
20200226131242 49 247 5.0 16.0 0.00 0.00 0.00 57 1025.4
20200226130740 49 265 5.0 16.0 0.00 0.00 0.00 56 1025.1
20200226130238 50 263 6.0 19.0 0.00 0.00 0.00 56 1024.7
20200226125737 50 266 5.0 19.0 0.00 0.00 0.00 56 1024.7
20200226125236 50 257 7.0 19.0 0.00 0.00 0.00 56 1024.7
20200226124735 51 286 5.0 19.0 0.00 0.00 0.00 54 1024.4
20200226124234 51 292 5.0 13.0 0.00 0.00 0.00 53 1024.4
20200226123733 51 262 3.0 13.0 0.00 0.00 0.00 54 1024.0
20200226123233 51 266 3.0 13.0 0.00 0.00 0.00 52 1024.0
20200226122731 51 301 3.0 13.0 0.00 0.00 0.00 52 1023.7
20200226122230 52 287 5.0 13.0 0.00 0.00 0.00 51 1023.7
20200226121729 52 297 5.0 14.0 0.00 0.00 0.00 50 1023.7
20200226121228 52 266 5.0 14.0 0.00 0.00 0.00 50 1023.7
20200226120727 52 289 4.0 19.0 0.00 0.00 0.00 49 1023.4
20200226120226 52 287 4.0 19.0 0.00 0.00 0.00 49 1023.4
20200226115725 53 306 5.0 19.0 0.00 0.00 0.00 47 1023.4
20200226115224 53 253 6.0 19.0 0.00 0.00 0.00 47 1023.4
20200226114723 53 253 2.0 14.0 0.00 0.00 0.00 48 1023.0
20200226114221 53 302 4.0 14.0 0.00 0.00 0.00 46 1023.0
20200226113720 54 276 5.0 16.0 0.00 0.00 0.00 46 1022.7
20200226113219 54 273 4.0 16.0 0.00 0.00 0.00 46 1022.7
20200226112718 54 276 3.0 16.0 0.00 0.00 0.00 45 1022.7
20200226112217 54 279 5.0 16.0 0.00 0.00 0.00 45 1022.4
20200226111715 54 270 5.0 11.0 0.00 0.00 0.00 43 1022.4
20200226111214 55 278 4.0 11.0 0.00 0.00 0.00 44 1022.4
20200226110713 55 269 3.0 8.0 0.00 0.00 0.00 44 1022.4
20200226110212 55 285 3.0 12.0 0.00 0.00 0.00 44 1022.0
20200226105711 55 275 2.0 12.0 0.00 0.00 0.00 43 1022.0
20200226105209 55 309 3.0 12.0 0.00 0.00 0.00 43 1022.0
20200226104709 55 324 4.0 12.0 0.00 0.00 0.00 42 1021.7
20200226104208 55 277 3.0 12.0 0.00 0.00 0.00 41 1021.7
20200226103707 55 298 3.0 14.0 0.00 0.00 0.00 40 1021.3
20200226103206 55 287 4.0 14.0 0.00 0.00 0.00 41 1021.3
20200226102705 55 273 3.0 14.0 0.00 0.00 0.00 41 1021.3
20200226102203 56 282 3.0 9.0 0.00 0.00 0.00 40 1021.0
20200226101702 56 319 3.0 9.0 0.00 0.00 0.00 41 1021.3
20200226101201 56 296 2.0 8.0 0.00 0.00 0.00 42 1021.3
20200226100700 56 294 2.0 9.0 0.00 0.00 0.00 43 1021.0
20200226100158 56 301 2.0 13.0 0.00 0.00 0.00 43 1021.3
20200226095658 56 330 2.0 13.0 0.00 0.00 0.00 41 1020.7
20200226095157 56 317 3.0 13.0 0.00 0.00 0.00 42 1020.7
20200226094656 56 282 2.0 9.0 0.00 0.00 0.00 42 1021.0
20200226094155 56 302 3.0 9.0 0.00 0.00 0.00 41 1020.7
20200226093653 56 293 3.0 10.0 0.00 0.00 0.00 42 1020.3
20200226093152 57 316 3.0 10.0 0.00 0.00 0.00 40 1020.7
20200226092651 57 306 2.0 10.0 0.00 0.00 0.00 44 1020.3
20200226092150 57 312 3.0 10.0 0.00 0.00 0.00 43 1020.7
20200226091649 57 314 3.0 10.0 0.00 0.00 0.00 43 1020.3
20200226091148 57 265 3.0 10.0 0.00 0.00 0.00 44 1020.3
20200226090647 57 291 2.0 9.0 0.00 0.00 0.00 45 1020.3
20200226090146 57 254 3.0 9.0 0.00 0.00 0.00 46 1020.3
20200226085645 57 341 2.0 7.0 0.00 0.00 0.00 46 1020.0
20200226085144 57 312 3.0 8.0 0.00 0.00 0.00 45 1020.0
20200226084642 57 336 2.0 8.0 0.00 0.00 0.00 47 1019.6
20200226084141 57 311 2.0 8.0 0.00 0.00 0.00 48 1020.3
20200226083640 57 268 3.0 10.0 0.00 0.00 0.00 48 1020.0
20200226083139 57 358 1.0 11.0 0.00 0.00 0.00 48 1020.3
20200226082638 57 306 2.0 11.0 0.00 0.00 0.00 49 1020.7
20200226082137 57 290 2.0 11.0 0.00 0.00 0.00 50 1020.7
20200226081636 57 314 2.0 12.0 0.00 0.00 0.00 50 1020.3
20200226081134 57 341 2.0 12.0 0.00 0.00 0.00 51 1020.3
20200226080633 57 325 2.0 12.0 0.00 0.00 0.00 52 1020.0
20200226080132 58 326 3.0 12.0 0.00 0.00 0.00 50 1019.6
20200226075631 58 318 3.0 9.0 0.00 0.00 0.00 51 1019.3
20200226075130 58 275 2.0 9.0 0.00 0.00 0.00 52 1020.0
20200226074629 58 317 3.0 9.0 0.00 0.00 0.00 52 1020.0
20200226074128 58 310 2.0 9.0 0.00 0.00 0.00 53 1020.3
20200226073627 58 282 2.0 9.0 0.00 0.00 0.00 52 1019.3
20200226073126 58 333 3.0 9.0 0.00 0.00 0.00 52 1019.6
20200226072625 58 305 2.0 11.0 0.00 0.00 0.00 52 1020.0
20200226072124 58 311 2.0 12.0 0.00 0.00 0.00 54 1019.6
20200226071622 58 300 3.0 13.0 0.00 0.00 0.00 54 1019.6
20200226071122 58 320 4.0 13.0 0.00 0.00 0.00 54 1019.6
20200226070620 58 316 5.0 13.0 0.00 0.00 0.00 55 1019.6
20200226070119 59 327 3.0 12.0 0.00 0.00 0.00 57 1019.6
20200226065618 59 338 3.0 12.0 0.00 0.00 0.00 58 1019.6
20200226065116 59 255 3.0 13.0 0.00 0.00 0.00 59 1019.6
20200226064615 59 300 2.0 15.0 0.00 0.00 0.00 60 1019.6
20200226064114 59 316 5.0 16.0 0.00 0.00 0.00 59 1019.6
20200226063613 59 298 5.0 16.0 0.00 0.00 0.00 59 1019.6
20200226063112 59 333 4.0 16.0 0.00 0.00 0.00 60 1019.6
20200226062611 59 307 5.0 16.0 0.00 0.00 0.00 60 1019.6
20200226062110 59 291 3.0 14.0 0.00 0.00 0.00 60 1019.3
20200226061609 59 303 4.0 14.0 0.00 0.00 0.00 59 1019.3
20200226061108 59 333 3.0 14.0 0.00 0.00 0.00 60 1019.0
20200226060607 59 313 5.0 14.0 0.00 0.00 0.00 61 1019.0
20200226060106 59 312 3.0 11.0 0.00 0.00 0.00 62 1019.0
20200226055605 59 1 2.0 11.0 0.00 0.00 0.00 62 1019.0
20200226055104 59 304 2.0 11.0 0.00 0.00 0.00 62 1018.6
20200226054603 59 305 3.0 11.0 0.00 0.00 0.00 62 1018.6
20200226054101 59 334 2.0 10.0 0.00 0.00 0.00 63 1019.0
20200226053600 59 282 3.0 10.0 0.00 0.00 0.00 62 1018.6
20200226053059 59 317 4.0 12.0 0.00 0.00 0.00 63 1018.6
20200226052558 59 335 3.0 12.0 0.00 0.00 0.00 64 1018.6
20200226052056 58 318 3.0 12.0 0.00 0.00 0.00 65 1018.3
20200226051555 58 356 2.0 12.0 0.00 0.00 0.00 65 1018.6
20200226051054 58 299 4.0 9.0 0.00 0.00 0.00 66 1018.3
20200226050553 59 328 3.0 12.0 0.00 0.00 0.00 67 1018.3
20200226050052 59 325 3.0 12.0 0.00 0.00 0.00 69 1018.3
20200226045551 59 326 2.0 12.0 0.00 0.00 0.00 68 1017.9
20200226045050 60 298 2.0 12.0 0.00 0.00 0.00 68 1017.9
20200226044549 60 358 2.0 11.0 0.00 0.00 0.00 66 1017.9
20200226044047 60 343 2.0 9.0 0.00 0.00 0.00 64 1017.6
20200226043546 60 316 3.0 9.0 0.00 0.00 0.00 62 1017.6
20200226043044 60 323 3.0 9.0 0.00 0.00 0.00 63 1017.6
20200226042543 60 334 2.0 9.0 0.00 0.00 0.00 63 1017.6
20200226042042 60 307 2.0 9.0 0.00 0.00 0.00 62 1017.3
20200226041540 60 309 3.0 9.0 0.00 0.00 0.00 63 1016.9
20200226041039 60 307 2.0 7.0 0.00 0.00 0.00 62 1016.9
20200226040537 60 302 2.0 7.0 0.00 0.00 0.00 62 1016.6
20200226040036 60 350 2.0 7.0 0.00 0.00 0.00 61 1016.9
20200226035535 60 291 2.0 7.0 0.00 0.00 0.00 62 1016.9
20200226035034 60 352 1.0 6.0 0.00 0.00 0.00 62 1016.9
20200226034533 61 284 2.0 6.0 0.00 0.00 0.00 62 1016.6
20200226034032 61 299 2.0 5.0 0.00 0.00 0.00 62 1016.6
20200226033531 61 304 2.0 8.0 0.00 0.00 0.00 62 1016.3
20200226033030 61 317 2.0 8.0 0.00 0.00 0.00 61 1016.3
20200226032529 61 355 2.0 8.0 0.00 0.00 0.00 61 1015.9
20200226032028 62 16 3.0 8.0 0.00 0.00 0.00 61 1015.9
20200226031526 62 14 2.0 9.0 0.00 0.00 0.00 61 1015.9
20200226031024 62 313 2.0 11.0 0.00 0.00 0.00 60 1015.9
20200226030523 62 6 2.0 11.0 0.00 0.00 0.00 61 1015.6
20200226030022 62 22 2.0 11.0 0.00 0.00 0.00 60 1015.6
20200226025521 63 326 3.0 18.0 0.00 0.00 0.00 61 1015.6
20200226025020 63 318 3.0 18.0 0.00 0.00 0.00 60 1015.2
20200226024519 63 278 3.0 18.0 0.00 0.00 0.00 61 1015.2
20200226024018 63 284 3.0 18.0 0.00 0.00 0.00 61 1015.2
20200226023516 63 315 3.0 15.0 0.00 0.00 0.00 60 1014.9
20200226023015 63 292 2.0 10.0 0.00 0.00 0.00 61 1014.9
20200226022514 64 322 3.0 10.0 0.00 0.00 0.00 61 1014.9
20200226022012 64 338 3.0 10.0 0.00 0.00 0.00 62 1014.9
20200226021511 64 308 3.0 11.0 0.00 0.00 0.00 62 1014.6
20200226021010 64 340 3.0 11.0 0.00 0.00 0.00 62 1014.6
20200226020509 64 9 2.0 11.0 0.00 0.00 0.00 62 1014.2
20200226020008 64 304 3.0 11.0 0.00 0.00 0.00 62 1014.2
20200226015506 64 316 2.0 6.0 0.00 0.00 0.00 63 1014.2
20200226015005 65 264 2.0 7.0 0.00 0.00 0.00 64 1014.2
20200226014504 65 289 2.0 7.0 0.00 0.00 0.00 63 1013.9
20200226014003 65 320 3.0 7.0 0.00 0.00 0.00 62 1013.9
20200226013502 65 332 3.0 7.0 0.00 0.00 0.00 63 1013.5
20200226013001 65 318 3.0 6.0 0.00 0.00 0.00 64 1013.5
20200226012500 65 316 1.0 6.0 0.00 0.00 0.00 63 1013.5
20200226011958 66 311 3.0 6.0 0.00 0.00 0.00 63 1013.2
20200226011457 66 315 2.0 8.0 0.00 0.00 0.00 62 1013.2
20200226010956 66 335 2.0 8.0 0.00 0.00 0.00 62 1013.2
20200226010454 66 264 2.0 8.0 0.00 0.00 0.00 63 1012.9
20200226005953 66 249 1.0 8.0 0.00 0.00 0.00 62 1012.9
20200226005451 66 303 2.0 7.0 0.00 0.00 0.00 63 1012.5
20200226004950 66 331 2.0 7.0 0.00 0.00 0.00 63 1012.5
20200226004449 66 308 1.0 7.0 0.00 0.00 0.00 65 1012.5
20200226003948 66 322 2.0 7.0 0.00 0.00 0.00 65 1012.5
20200226003447 66 8 1.0 2.0 0.00 0.00 0.00 67 1012.2
20200226002945 66 5 1.0 2.0 0.00 0.00 0.00 67 1012.2
20200226002444 66 9 1.0 2.0 0.00 0.00 0.00 67 1011.9
20200226001943 67 342 0.0 2.0 0.00 0.00 0.00 69 1011.9
20200226001442 67 341 1.0 2.0 0.00 0.00 0.00 68 1011.9
20200226000940 68 341 1.0 2.0 0.00 0.00 0.00 66 1011.5
20200226000439 68 341 1.0 2.0 0.00 0.00 0.00 66 1011.5
20200225235937 69 341 0.0 2.0 0.00 0.00 0.00 66 1011.5
20200225235436 69 341 0.0 3.0 0.00 0.00 0.00 64 1011.2
20200225234935 69 341 1.0 3.0 0.00 0.00 0.00 61 1011.2
20200225234434 70 341 1.0 3.0 0.00 0.00 0.00 59 1010.8
20200225233933 70 12 1.0 2.0 0.00 0.00 0.00 59 1010.8
20200225233432 70 63 1.0 4.0 0.00 0.00 0.00 62 1010.5
20200225232931 70 63 1.0 4.0 0.00 0.00 0.00 61 1010.5
20200225232430 71 62 1.0 4.0 0.00 0.00 0.00 58 1010.5
20200225231929 71 64 2.0 4.0 0.00 0.00 0.00 62 1010.5
20200225231427 71 84 1.0 3.0 0.00 0.00 0.00 60 1010.5
20200225230926 71 100 1.0 5.0 0.00 0.00 0.00 61 1010.2
20200225230426 71 104 2.0 5.0 0.00 0.00 0.00 61 1010.2
20200225225924 72 99 1.0 5.0 0.00 0.00 0.00 59 1010.2
20200225225423 72 104 2.0 5.0 0.00 0.00 0.00 58 1010.2
20200225224922 72 37 1.0 4.0 0.00 0.00 0.00 56 1010.2
20200225224421 72 135 1.0 4.0 0.00 0.00 0.00 57 1010.2
20200225223920 72 27 1.0 2.0 0.00 0.00 0.00 57 1010.2
20200225223419 72 27 1.0 2.0 0.00 0.00 0.00 55 1010.2
20200225222918 72 26 1.0 7.0 0.00 0.00 0.00 54 1010.2
20200225222417 72 21 1.0 7.0 0.00 0.00 0.00 56 1010.2
20200225221916 72 12 1.0 7.0 0.00 0.00 0.00 55 1010.2
20200225221415 72 92 3.0 7.0 0.00 0.00 0.00 55 1010.2
20200225220914 72 47 1.0 6.0 0.00 0.00 0.00 56 1010.2
20200225220413 72 64 2.0 6.0 0.00 0.00 0.00 55 1010.2
20200225215912 72 64 1.0 6.0 0.00 0.00 0.00 55 1010.2
20200225215410 73 80 2.0 5.0 0.00 0.00 0.00 54 1010.2
20200225214909 73 28 2.0 5.0 0.00 0.00 0.00 54 1010.2
20200225214408 73 63 2.0 5.0 0.00 0.00 0.00 55 1009.8
20200225213907 73 67 2.0 5.0 0.00 0.00 0.00 56 1009.8
20200225213405 73 353 1.0 6.0 0.00 0.00 0.00 56 1009.8
20200225212904 73 26 1.0 6.0 0.00 0.00 0.00 55 1010.2
20200225212404 73 49 2.0 6.0 0.00 0.00 0.00 57 1010.2
20200225211902 73 76 3.0 6.0 0.00 0.00 0.00 57 1010.2
20200225211401 73 35 1.0 4.0 0.00 0.00 0.00 56 1010.2
20200225210859 73 74 2.0 4.0 0.00 0.00 0.00 57 1010.2
20200225210358 73 61 2.0 7.0 0.00 0.00 0.00 57 1010.2
20200225205857 73 61 1.0 7.0 0.00 0.00 0.00 57 1010.2
20200225205355 73 43 2.0 7.0 0.00 0.00 0.00 57 1010.2
20200225204854 72 86 1.0 7.0 0.00 0.00 0.00 59 1010.2
20200225204353 72 52 2.0 5.0 0.00 0.00 0.00 59 1010.2